Time,TemperatureF,DewpointF,PressureIn,WindDirection,WindDirectionDegrees,WindSpeedMPH,WindSpeedGustMPH,Humidity,HourlyPrecipIn,Conditions,Clouds,dailyrainin,SoftwareType,DateUTC
2013-02-22 00:00:00,15.4,12.2,30.36,South,172,4.0,11.0,87,0.00,,,0.00,meteohub,2013-02-22 05:00:00,
2013-02-22 00:01:00,15.4,12.2,30.36,SE,132,4.0,11.0,87,0.00,,,0.00,meteohub,2013-02-22 05:01:00,
2013-02-22 00:02:00,15.4,12.2,30.36,SE,138,4.0,11.0,87,0.00,,,0.00,meteohub,2013-02-22 05:02:00,
2013-02-22 00:03:00,15.4,12.2,30.36,SE,139,5.0,11.0,87,0.00,,,0.00,meteohub,2013-02-22 05:03:00,
2013-02-22 00:08:00,15.3,12.0,30.36,SE,129,4.0,11.0,87,0.00,,,0.00,meteohub,2013-02-22 05:08:00,
2013-02-22 00:13:00,15.3,12.0,30.36,SE,130,2.0,8.0,87,0.00,,,0.00,meteohub,2013-02-22 05:13:00,
2013-02-22 00:18:00,15.3,12.0,30.36,SSE,149,3.0,8.0,87,0.00,,,0.00,meteohub,2013-02-22 05:18:00,
2013-02-22 00:24:00,15.3,12.0,30.36,ESE,111,2.0,7.0,87,0.00,,,0.00,meteohub,2013-02-22 05:24:00,
2013-02-22 00:29:00,15.3,12.0,30.36,SE,139,2.0,7.0,87,0.00,,,0.00,meteohub,2013-02-22 05:29:00,
2013-02-22 00:34:00,15.3,12.4,30.36,SSE,148,2.0,7.0,88,0.00,,,0.00,meteohub,2013-02-22 05:34:00,
2013-02-22 00:39:00,15.3,12.4,30.37,SSE,154,3.0,7.0,88,0.00,,,0.00,meteohub,2013-02-22 05:39:00,
2013-02-22 00:44:00,15.3,12.4,30.38,SSW,202,2.0,7.0,88,0.00,,,0.00,meteohub,2013-02-22 05:44:00,
2013-02-22 00:49:00,15.3,12.4,30.38,South,175,2.0,7.0,88,0.00,,,0.00,meteohub,2013-02-22 05:49:00,
2013-02-22 00:54:00,15.3,12.4,30.38,SSE,159,1.0,7.0,88,0.00,,,0.00,meteohub,2013-02-22 05:54:00,
2013-02-22 00:59:00,15.3,12.4,30.38,SSE,153,2.0,6.0,88,0.00,,,0.00,meteohub,2013-02-22 05:59:00,
2013-02-22 01:04:00,15.3,12.4,30.38,SSW,192,3.0,6.0,88,0.00,,,0.00,meteohub,2013-02-22 06:04:00,
2013-02-22 01:09:00,15.3,12.4,30.39,SSW,200,1.0,6.0,88,0.00,,,0.00,meteohub,2013-02-22 06:09:00,
2013-02-22 01:14:00,15.3,12.4,30.40,WSW,240,2.0,6.0,88,0.00,,,0.00,meteohub,2013-02-22 06:14:00,
2013-02-22 01:19:00,15.3,12.4,30.40,SSW,198,2.0,5.0,88,0.00,,,0.00,meteohub,2013-02-22 06:19:00,
2013-02-22 01:24:00,15.3,12.4,30.38,SSW,207,3.0,5.0,88,0.00,,,0.00,meteohub,2013-02-22 06:24:00,
2013-02-22 01:29:00,15.3,12.4,30.38,SSW,212,2.0,4.0,88,0.00,,,0.00,meteohub,2013-02-22 06:29:00,
2013-02-22 01:35:00,15.3,12.4,30.37,SSE,150,2.0,4.0,88,0.00,,,0.00,meteohub,2013-02-22 06:35:00,
2013-02-22 01:40:00,15.3,12.4,30.36,SSE,152,2.0,4.0,88,0.00,,,0.00,meteohub,2013-02-22 06:40:00,
2013-02-22 01:45:00,15.3,12.4,30.36,SW,218,3.0,4.0,88,0.00,,,0.00,meteohub,2013-02-22 06:45:00,
2013-02-22 01:50:00,15.3,12.4,30.36,SE,146,2.0,4.0,88,0.00,,,0.00,meteohub,2013-02-22 06:50:00,
2013-02-22 01:55:00,15.3,12.4,30.36,SSE,150,2.0,5.0,88,0.00,,,0.00,meteohub,2013-02-22 06:55:00,
2013-02-22 02:00:00,15.3,12.4,30.36,South,188,2.0,5.0,88,0.00,,,0.00,meteohub,2013-02-22 07:00:00,
2013-02-22 02:05:00,15.4,12.6,30.36,SSE,167,3.0,5.0,88,0.00,,,0.00,meteohub,2013-02-22 07:05:00,
2013-02-22 02:10:00,15.4,12.6,30.36,South,190,1.0,6.0,88,0.00,,,0.00,meteohub,2013-02-22 07:10:00,
2013-02-22 02:15:00,15.4,12.6,30.36,South,190,2.0,6.0,88,0.00,,,0.00,meteohub,2013-02-22 07:15:00,
2013-02-22 02:20:00,15.4,12.6,30.35,SE,134,3.0,5.0,88,0.00,,,0.00,meteohub,2013-02-22 07:20:00,
2013-02-22 02:25:00,15.6,12.7,30.35,South,169,2.0,7.0,88,0.00,,,0.00,meteohub,2013-02-22 07:25:00,
2013-02-22 02:30:00,15.6,12.7,30.35,South,174,4.0,9.0,88,0.00,,,0.00,meteohub,2013-02-22 07:30:00,
2013-02-22 02:35:00,15.6,12.7,30.34,SSW,207,3.0,9.0,88,0.00,,,0.00,meteohub,2013-02-22 07:35:00,
2013-02-22 02:40:00,15.6,12.4,30.33,SSE,150,8.0,9.0,87,0.00,,,0.00,meteohub,2013-02-22 07:40:00,
2013-02-22 02:45:00,15.8,12.6,30.32,South,172,5.0,9.0,87,0.00,,,0.00,meteohub,2013-02-22 07:45:00,
2013-02-22 02:51:00,15.8,12.6,30.32,SSW,200,1.0,9.0,87,0.00,,,0.00,meteohub,2013-02-22 07:51:00,
2013-02-22 02:56:00,16.0,12.7,30.32,South,171,3.0,9.0,87,0.00,,,0.00,meteohub,2013-02-22 07:56:00,
2013-02-22 03:01:00,16.0,12.7,30.32,SW,217,3.0,8.0,87,0.00,,,0.00,meteohub,2013-02-22 08:01:00,
2013-02-22 03:06:00,16.0,12.7,30.32,SSE,161,3.0,6.0,87,0.00,,,0.00,meteohub,2013-02-22 08:06:00,
2013-02-22 03:11:00,16.0,12.7,30.32,SSW,196,2.0,11.0,87,0.00,,,0.00,meteohub,2013-02-22 08:11:00,
2013-02-22 03:16:00,16.0,12.7,30.32,SE,130,4.0,11.0,87,0.00,,,0.00,meteohub,2013-02-22 08:16:00,
2013-02-22 03:21:00,16.2,12.7,30.32,South,169,7.0,11.0,86,0.00,,,0.00,meteohub,2013-02-22 08:21:00,
2013-02-22 03:26:00,16.2,12.9,30.31,SE,140,6.0,10.0,87,0.00,,,0.00,meteohub,2013-02-22 08:26:00,
2013-02-22 03:31:00,16.2,12.9,30.31,South,176,2.0,10.0,87,0.00,,,0.00,meteohub,2013-02-22 08:31:00,
2013-02-22 03:36:00,16.2,12.7,30.31,SSE,149,5.0,10.0,86,0.00,,,0.00,meteohub,2013-02-22 08:36:00,
2013-02-22 03:41:00,16.3,12.9,30.31,South,175,5.0,9.0,86,0.00,,,0.00,meteohub,2013-02-22 08:41:00,
2013-02-22 03:46:00,16.5,13.1,30.31,SSE,165,4.0,12.0,86,0.00,,,0.00,meteohub,2013-02-22 08:46:00,
2013-02-22 03:51:00,16.5,13.1,30.31,SSE,165,4.0,12.0,86,0.00,,,0.00,meteohub,2013-02-22 08:51:00,
2013-02-22 03:56:00,16.7,13.3,30.30,SE,144,5.0,12.0,86,0.00,,,0.00,meteohub,2013-02-22 08:56:00,
2013-02-22 04:01:00,16.9,13.5,30.30,SE,146,4.0,9.0,86,0.00,,,0.00,meteohub,2013-02-22 09:01:00,
2013-02-22 04:06:00,17.1,13.3,30.30,SE,138,7.0,9.0,85,0.00,,,0.00,meteohub,2013-02-22 09:06:00,
2013-02-22 04:11:00,17.1,13.3,30.29,SSE,166,4.0,9.0,85,0.00,,,0.00,meteohub,2013-02-22 09:11:00,
2013-02-22 04:17:00,17.2,13.5,30.28,SSE,161,4.0,9.0,85,0.00,,,0.00,meteohub,2013-02-22 09:17:00,
2013-02-22 04:22:00,17.2,13.5,30.29,ESE,109,4.0,11.0,85,0.00,,,0.00,meteohub,2013-02-22 09:22:00,
2013-02-22 04:27:00,17.4,13.6,30.28,South,175,5.0,11.0,85,0.00,,,0.00,meteohub,2013-02-22 09:27:00,
2013-02-22 04:32:00,17.4,13.6,30.27,SSE,158,4.0,11.0,85,0.00,,,0.00,meteohub,2013-02-22 09:32:00,
2013-02-22 04:37:00,17.4,13.6,30.27,SSE,162,7.0,11.0,85,0.00,,,0.00,meteohub,2013-02-22 09:37:00,
2013-02-22 04:42:00,17.6,13.8,30.27,SSE,151,2.0,11.0,85,0.00,,,0.00,meteohub,2013-02-22 09:42:00,
2013-02-22 04:47:00,17.8,14.0,30.26,SSE,154,5.0,10.0,85,0.00,,,0.00,meteohub,2013-02-22 09:47:00,
2013-02-22 04:52:00,17.8,14.0,30.25,SSE,148,6.0,9.0,85,0.00,,,0.00,meteohub,2013-02-22 09:52:00,
2013-02-22 04:57:00,18.0,14.2,30.25,SE,137,4.0,10.0,85,0.00,,,0.00,meteohub,2013-02-22 09:57:00,
2013-02-22 05:02:00,18.0,14.0,30.25,SE,138,8.0,10.0,84,0.00,,,0.00,meteohub,2013-02-22 10:02:00,
2013-02-22 05:07:00,18.1,14.2,30.25,SE,142,6.0,10.0,84,0.00,,,0.00,meteohub,2013-02-22 10:07:00,
2013-02-22 05:12:00,18.3,14.4,30.24,SSE,151,5.0,11.0,84,0.00,,,0.00,meteohub,2013-02-22 10:12:00,
2013-02-22 05:17:00,18.7,14.4,30.23,SE,140,5.0,11.0,83,0.00,,,0.00,meteohub,2013-02-22 10:17:00,
2013-02-22 05:22:00,18.9,14.5,30.22,SE,138,5.0,14.0,83,0.00,,,0.00,meteohub,2013-02-22 10:22:00,
2013-02-22 05:27:00,19.0,14.7,30.23,SSE,157,8.0,14.0,83,0.00,,,0.00,meteohub,2013-02-22 10:27:00,
2013-02-22 05:32:00,19.2,14.9,30.23,SE,132,5.0,13.0,83,0.00,,,0.00,meteohub,2013-02-22 10:32:00,
2013-02-22 05:37:00,19.6,14.9,30.22,SSE,156,7.0,13.0,82,0.00,,,0.00,meteohub,2013-02-22 10:37:00,
2013-02-22 05:42:00,19.8,15.1,30.22,South,175,10.0,13.0,82,0.00,,,0.00,meteohub,2013-02-22 10:42:00,
2013-02-22 05:47:00,19.9,15.3,30.22,South,186,12.0,14.0,82,0.00,,,0.00,meteohub,2013-02-22 10:47:00,
2013-02-22 05:52:00,19.9,15.3,30.22,SSW,197,7.0,14.0,82,0.00,,,0.00,meteohub,2013-02-22 10:52:00,
2013-02-22 05:57:00,20.1,15.3,30.22,South,180,8.0,14.0,81,0.00,,,0.00,meteohub,2013-02-22 10:57:00,
2013-02-22 06:02:00,20.3,15.4,30.22,SE,142,5.0,13.0,81,0.00,,,0.00,meteohub,2013-02-22 11:02:00,
2013-02-22 06:07:00,20.5,15.6,30.22,SSE,167,7.0,13.0,81,0.00,,,0.00,meteohub,2013-02-22 11:07:00,
2013-02-22 06:12:00,20.5,15.6,30.22,South,169,3.0,13.0,81,0.00,,,0.00,meteohub,2013-02-22 11:12:00,
2013-02-22 06:17:00,20.7,15.8,30.21,SE,144,10.0,12.0,81,0.00,,,0.00,meteohub,2013-02-22 11:17:00,
2013-02-22 06:22:00,20.8,16.0,30.21,SE,145,5.0,12.0,81,0.00,,,0.00,meteohub,2013-02-22 11:22:00,
2013-02-22 06:28:00,20.8,16.0,30.21,SSE,153,8.0,14.0,81,0.00,,,0.00,meteohub,2013-02-22 11:28:00,
2013-02-22 06:33:00,21.0,15.8,30.20,SSW,199,6.0,14.0,80,0.00,,,0.00,meteohub,2013-02-22 11:33:00,
2013-02-22 06:38:00,21.2,16.3,30.20,South,188,6.0,14.0,81,0.00,,,0.00,meteohub,2013-02-22 11:38:00,
2013-02-22 06:43:00,21.4,16.2,30.20,South,186,4.0,14.0,80,0.00,,,0.00,meteohub,2013-02-22 11:43:00,
2013-02-22 06:48:00,21.4,16.2,30.19,South,185,3.0,14.0,80,0.00,,,0.00,meteohub,2013-02-22 11:48:00,
2013-02-22 06:53:00,21.6,16.3,30.19,South,169,3.0,14.0,80,0.00,,,0.00,meteohub,2013-02-22 11:53:00,
2013-02-22 06:58:00,21.7,16.5,30.19,SSW,207,4.0,11.0,80,0.00,,,0.00,meteohub,2013-02-22 11:58:00,
2013-02-22 07:03:00,21.7,16.5,30.19,South,186,4.0,15.0,80,0.00,,,0.00,meteohub,2013-02-22 12:03:00,
2013-02-22 07:08:00,21.9,16.7,30.18,SSE,148,8.0,15.0,80,0.00,,,0.00,meteohub,2013-02-22 12:08:00,
2013-02-22 07:13:00,22.3,16.7,30.17,SSE,165,5.0,13.0,79,0.00,,,0.00,meteohub,2013-02-22 12:13:00,
2013-02-22 07:18:00,22.5,16.9,30.18,SE,144,7.0,12.0,79,0.00,,,0.00,meteohub,2013-02-22 12:18:00,
2013-02-22 07:23:00,22.6,17.1,30.18,South,170,5.0,12.0,79,0.00,,,0.00,meteohub,2013-02-22 12:23:00,
2013-02-22 07:28:00,22.8,17.1,30.18,SSW,201,5.0,12.0,78,0.00,,,0.00,meteohub,2013-02-22 12:28:00,
2013-02-22 07:33:00,23.0,17.2,30.18,SW,218,7.0,15.0,78,0.00,,,0.00,meteohub,2013-02-22 12:33:00,
2013-02-22 07:38:00,23.2,17.4,30.18,SSW,202,7.0,16.0,78,0.00,,,0.00,meteohub,2013-02-22 12:38:00,
2013-02-22 07:44:00,23.4,17.6,30.18,SSW,192,5.0,16.0,78,0.00,,,0.00,meteohub,2013-02-22 12:44:00,
2013-02-22 07:49:00,23.4,17.6,30.17,SE,144,4.0,16.0,78,0.00,,,0.00,meteohub,2013-02-22 12:49:00,
2013-02-22 07:54:00,23.5,17.8,30.17,SE,133,5.0,14.0,78,0.00,,,0.00,meteohub,2013-02-22 12:54:00,
2013-02-22 07:59:00,23.5,17.8,30.17,SSE,167,8.0,13.0,78,0.00,,,0.00,meteohub,2013-02-22 12:59:00,
2013-02-22 08:04:00,23.7,18.0,30.16,SSE,150,3.0,13.0,78,0.00,,,0.00,meteohub,2013-02-22 13:04:00,
2013-02-22 08:09:00,23.7,18.1,30.16,SSE,159,8.0,14.0,79,0.00,,,0.00,meteohub,2013-02-22 13:09:00,
2013-02-22 08:14:00,23.9,18.0,30.16,South,186,6.0,14.0,78,0.00,,,0.00,meteohub,2013-02-22 13:14:00,
2013-02-22 08:19:00,24.1,18.5,30.16,SSW,213,10.0,14.0,79,0.00,,,0.00,meteohub,2013-02-22 13:19:00,
2013-02-22 08:24:00,24.1,18.5,30.16,SSE,160,12.0,16.0,79,0.00,,,0.00,meteohub,2013-02-22 13:24:00,
2013-02-22 08:29:00,24.1,18.9,30.15,SSE,157,7.0,16.0,80,0.00,,,0.00,meteohub,2013-02-22 13:29:00,
2013-02-22 08:34:00,24.1,18.9,30.15,SW,230,10.0,16.0,80,0.00,,,0.00,meteohub,2013-02-22 13:34:00,
2013-02-22 08:39:00,24.1,19.0,30.14,SSE,166,3.0,17.0,81,0.00,,,0.00,meteohub,2013-02-22 13:39:00,
2013-02-22 08:44:00,24.1,19.4,30.14,SSW,200,7.0,17.0,82,0.00,,,0.00,meteohub,2013-02-22 13:44:00,
2013-02-22 08:49:00,24.1,19.8,30.14,SSE,162,9.0,17.0,83,0.00,,,0.00,meteohub,2013-02-22 13:49:00,
2013-02-22 08:55:00,24.3,19.8,30.13,South,182,10.0,14.0,83,0.00,,,0.00,meteohub,2013-02-22 13:55:00,
2013-02-22 09:00:00,24.4,19.9,30.13,SW,215,10.0,19.0,83,0.00,,,0.00,meteohub,2013-02-22 14:00:00,
2013-02-22 09:05:00,24.4,19.9,30.13,South,187,10.0,19.0,83,0.00,,,0.00,meteohub,2013-02-22 14:05:00,
2013-02-22 09:10:00,24.6,20.1,30.12,SSW,193,10.0,19.0,83,0.00,,,0.00,meteohub,2013-02-22 14:10:00,
2013-02-22 09:15:00,25.0,20.3,30.11,SSE,163,8.0,17.0,82,0.00,,,0.00,meteohub,2013-02-22 14:15:00,
2013-02-22 09:20:00,25.2,20.1,30.11,SSW,192,10.0,16.0,81,0.00,,,0.00,meteohub,2013-02-22 14:20:00,
2013-02-22 09:25:00,25.2,20.1,30.11,SSW,194,6.0,19.0,81,0.00,,,0.00,meteohub,2013-02-22 14:25:00,
2013-02-22 09:30:00,25.3,20.3,30.11,SSW,196,8.0,19.0,81,0.00,,,0.00,meteohub,2013-02-22 14:30:00,
2013-02-22 09:35:00,25.5,20.5,30.11,South,170,11.0,19.0,81,0.00,,,0.00,meteohub,2013-02-22 14:35:00,
2013-02-22 09:40:00,25.9,20.8,30.10,SSE,154,7.0,19.0,81,0.00,,,0.00,meteohub,2013-02-22 14:40:00,
2013-02-22 09:45:00,26.1,21.0,30.10,South,190,11.0,18.0,81,0.00,,,0.00,meteohub,2013-02-22 14:45:00,
2013-02-22 09:50:00,26.1,21.0,30.10,SW,224,10.0,19.0,81,0.00,,,0.00,meteohub,2013-02-22 14:50:00,
2013-02-22 09:56:00,26.2,20.8,30.10,South,190,8.0,19.0,80,0.00,,,0.00,meteohub,2013-02-22 14:56:00,
2013-02-22 10:01:00,26.2,20.8,30.10,SW,233,9.0,19.0,80,0.00,,,0.00,meteohub,2013-02-22 15:01:00,
2013-02-22 10:06:00,26.4,21.0,30.10,South,190,9.0,18.0,80,0.00,,,0.00,meteohub,2013-02-22 15:06:00,
2013-02-22 10:11:00,26.4,21.4,30.10,South,190,8.0,17.0,81,0.00,,,0.00,meteohub,2013-02-22 15:11:00,
2013-02-22 10:16:00,26.6,21.9,30.10,South,188,10.0,17.0,82,0.00,,,0.00,meteohub,2013-02-22 15:16:00,
2013-02-22 10:21:00,26.6,21.9,30.10,SSW,200,7.0,17.0,82,0.00,,,0.00,meteohub,2013-02-22 15:21:00,
2013-02-22 10:26:00,26.6,22.1,30.10,South,177,10.0,17.0,83,0.00,,,0.00,meteohub,2013-02-22 15:26:00,
2013-02-22 10:31:00,26.8,22.6,30.10,SSW,192,9.0,17.0,84,0.00,,,0.00,meteohub,2013-02-22 15:31:00,
2013-02-22 10:36:00,26.8,22.8,30.10,SSW,212,7.0,17.0,85,0.00,,,0.00,meteohub,2013-02-22 15:36:00,
2013-02-22 10:41:00,26.8,23.2,30.11,SSE,163,5.0,14.0,86,0.00,,,0.00,meteohub,2013-02-22 15:41:00,
2013-02-22 10:46:00,26.8,23.4,30.10,South,180,9.0,16.0,87,0.00,,,0.00,meteohub,2013-02-22 15:46:00,
2013-02-22 10:51:00,27.0,23.5,30.11,SW,224,8.0,16.0,87,0.00,,,0.00,meteohub,2013-02-22 15:51:00,
2013-02-22 10:57:00,27.0,23.5,30.11,SW,215,8.0,12.0,87,0.00,,,0.00,meteohub,2013-02-22 15:57:00,
2013-02-22 11:02:00,27.1,23.7,30.11,South,186,6.0,13.0,87,0.00,,,0.00,meteohub,2013-02-22 16:02:00,
2013-02-22 11:07:00,27.3,23.9,30.10,SSE,168,5.0,13.0,87,0.00,,,0.00,meteohub,2013-02-22 16:07:00,
2013-02-22 11:12:00,27.5,24.4,30.10,SW,214,7.0,13.0,88,0.00,,,0.00,meteohub,2013-02-22 16:12:00,
2013-02-22 11:17:00,27.7,24.6,30.10,SSW,201,6.0,13.0,88,0.00,,,0.00,meteohub,2013-02-22 16:17:00,
2013-02-22 11:22:00,27.7,24.6,30.10,SW,224,8.0,14.0,88,0.00,,,0.00,meteohub,2013-02-22 16:22:00,
2013-02-22 11:27:00,27.7,24.8,30.09,WSW,241,6.0,14.0,89,0.00,,,0.00,meteohub,2013-02-22 16:27:00,
2013-02-22 11:32:00,27.7,24.8,30.09,SSW,209,7.0,14.0,89,0.00,,,0.00,meteohub,2013-02-22 16:32:00,
2013-02-22 11:37:00,27.7,24.8,30.09,SW,224,7.0,15.0,89,0.00,,,0.00,meteohub,2013-02-22 16:37:00,
2013-02-22 11:42:00,27.7,25.2,30.09,SW,216,6.0,15.0,90,0.00,,,0.00,meteohub,2013-02-22 16:42:00,
2013-02-22 11:47:00,27.5,25.0,30.10,South,175,3.0,15.0,90,0.00,,,0.00,meteohub,2013-02-22 16:47:00,
2013-02-22 11:52:00,27.7,25.2,30.09,WSW,250,7.0,13.0,90,0.00,,,0.00,meteohub,2013-02-22 16:52:00,
2013-02-22 11:57:00,27.7,25.2,30.09,WSW,251,7.0,13.0,90,0.00,,,0.00,meteohub,2013-02-22 16:57:00,
2013-02-22 12:02:00,27.5,25.0,30.10,WSW,255,4.0,14.0,90,0.00,,,0.00,meteohub,2013-02-22 17:02:00,
2013-02-22 12:07:00,27.7,25.3,30.10,SW,215,6.0,14.0,91,0.00,,,0.00,meteohub,2013-02-22 17:07:00,
2013-02-22 12:12:00,27.7,25.3,30.09,South,176,5.0,14.0,91,0.00,,,0.00,meteohub,2013-02-22 17:12:00,
2013-02-22 12:17:00,27.9,25.9,30.09,SSW,198,7.0,11.0,92,0.00,,,0.00,meteohub,2013-02-22 17:17:00,
2013-02-22 12:22:00,27.9,25.9,30.09,South,190,7.0,12.0,92,0.00,,,0.00,meteohub,2013-02-22 17:22:00,
2013-02-22 12:27:00,28.0,26.1,30.09,South,185,10.0,12.0,92,0.00,,,0.00,meteohub,2013-02-22 17:27:00,
2013-02-22 12:32:00,28.0,26.1,30.09,SSW,193,7.0,13.0,92,0.00,,,0.00,meteohub,2013-02-22 17:32:00,
2013-02-22 12:37:00,28.2,26.4,30.09,SSW,211,7.0,13.0,93,0.00,,,0.00,meteohub,2013-02-22 17:37:00,
2013-02-22 12:42:00,28.4,26.6,30.07,South,185,3.0,13.0,93,0.00,,,0.00,meteohub,2013-02-22 17:42:00,
2013-02-22 12:47:00,28.6,26.8,30.07,WSW,250,4.0,16.0,93,0.00,,,0.00,meteohub,2013-02-22 17:47:00,
2013-02-22 12:52:00,28.6,26.8,30.07,SSW,194,5.0,16.0,93,0.00,,,0.00,meteohub,2013-02-22 17:52:00,
2013-02-22 12:57:00,28.8,27.0,30.07,SSW,208,12.0,12.0,93,0.00,,,0.00,meteohub,2013-02-22 17:57:00,
2013-02-22 13:02:00,28.8,27.0,30.07,SSW,213,5.0,13.0,93,0.00,,,0.00,meteohub,2013-02-22 18:02:00,
2013-02-22 13:07:00,28.8,27.0,30.07,SSW,198,6.0,13.0,93,0.00,,,0.00,meteohub,2013-02-22 18:07:00,
2013-02-22 13:12:00,28.9,27.5,30.07,South,185,7.0,13.0,94,0.00,,,0.00,meteohub,2013-02-22 18:12:00,
2013-02-22 13:17:00,28.9,27.5,30.06,SSW,193,5.0,13.0,94,0.00,,,0.00,meteohub,2013-02-22 18:17:00,
2013-02-22 13:22:00,29.1,27.7,30.06,SSW,196,8.0,10.0,94,0.00,,,0.00,meteohub,2013-02-22 18:22:00,
2013-02-22 13:27:00,29.1,27.7,30.06,SW,228,12.0,13.0,94,0.00,,,0.00,meteohub,2013-02-22 18:27:00,
2013-02-22 13:32:00,29.3,27.9,30.06,South,186,6.0,13.0,94,0.00,,,0.00,meteohub,2013-02-22 18:32:00,
2013-02-22 13:37:00,29.5,28.0,30.05,SSW,207,3.0,13.0,94,0.00,,,0.00,meteohub,2013-02-22 18:37:00,
2013-02-22 13:42:00,29.7,28.2,30.05,South,190,5.0,12.0,94,0.00,,,0.00,meteohub,2013-02-22 18:42:00,
2013-02-22 13:47:00,29.7,28.2,30.05,SW,217,3.0,11.0,94,0.00,,,0.00,meteohub,2013-02-22 18:47:00,
2013-02-22 13:52:00,29.8,28.4,30.04,South,186,5.0,11.0,94,0.00,,,0.00,meteohub,2013-02-22 18:52:00,
2013-02-22 13:57:00,29.8,28.6,30.04,SSW,196,2.0,10.0,95,0.00,,,0.00,meteohub,2013-02-22 18:57:00,
2013-02-22 14:02:00,30.0,28.8,30.04,SSW,204,5.0,11.0,95,0.00,,,0.00,meteohub,2013-02-22 19:02:00,
2013-02-22 14:07:00,30.0,28.8,30.04,SW,229,5.0,12.0,95,0.00,,,0.00,meteohub,2013-02-22 19:07:00,
2013-02-22 14:12:00,30.2,28.9,30.04,SSW,199,4.0,12.0,95,0.00,,,0.00,meteohub,2013-02-22 19:12:00,
2013-02-22 14:17:00,30.4,29.1,30.04,SW,216,4.0,12.0,95,0.00,,,0.00,meteohub,2013-02-22 19:17:00,
2013-02-22 14:22:00,30.6,29.3,30.04,South,180,5.0,11.0,95,0.00,,,0.00,meteohub,2013-02-22 19:22:00,
2013-02-22 14:27:00,30.6,29.3,30.04,South,188,3.0,10.0,95,0.00,,,0.00,meteohub,2013-02-22 19:27:00,
2013-02-22 14:32:00,30.7,29.5,30.04,SSW,194,2.0,10.0,95,0.00,,,0.00,meteohub,2013-02-22 19:32:00,
2013-02-22 14:37:00,30.7,29.5,30.04,SSW,205,5.0,10.0,95,0.00,,,0.00,meteohub,2013-02-22 19:37:00,
2013-02-22 14:42:00,30.7,29.5,30.04,South,189,4.0,9.0,95,0.00,,,0.00,meteohub,2013-02-22 19:42:00,
2013-02-22 14:47:00,30.9,29.7,30.04,SSW,201,3.0,9.0,95,0.00,,,0.00,meteohub,2013-02-22 19:47:00,
2013-02-22 14:52:00,31.1,29.8,30.04,SSW,202,4.0,9.0,95,0.00,,,0.00,meteohub,2013-02-22 19:52:00,
2013-02-22 14:57:00,31.1,29.8,30.04,WSW,256,2.0,10.0,95,0.00,,,0.00,meteohub,2013-02-22 19:57:00,
2013-02-22 15:02:00,31.3,30.0,30.04,SSW,208,2.0,10.0,95,0.00,,,0.00,meteohub,2013-02-22 20:02:00,
2013-02-22 15:07:00,31.3,30.2,30.04,SSE,163,6.0,10.0,96,0.00,,,0.00,meteohub,2013-02-22 20:07:00,
2013-02-22 15:12:00,31.5,30.4,30.04,SSW,203,4.0,10.0,96,0.00,,,0.00,meteohub,2013-02-22 20:12:00,
2013-02-22 15:17:00,31.5,30.4,30.04,SSW,205,3.0,10.0,96,0.00,,,0.00,meteohub,2013-02-22 20:17:00,
2013-02-22 15:22:00,31.5,30.4,30.04,SSW,206,7.0,10.0,96,0.00,,,0.00,meteohub,2013-02-22 20:22:00,
2013-02-22 15:27:00,31.6,30.6,30.04,SW,219,8.0,10.0,96,0.00,,,0.00,meteohub,2013-02-22 20:27:00,
2013-02-22 15:32:00,31.6,30.6,30.04,SW,223,6.0,10.0,96,0.00,,,0.00,meteohub,2013-02-22 20:32:00,
2013-02-22 15:37:00,31.6,30.6,30.04,SSW,195,4.0,11.0,96,0.00,,,0.00,meteohub,2013-02-22 20:37:00,
2013-02-22 15:42:00,31.6,30.6,30.04,SSW,198,4.0,11.0,96,0.00,,,0.00,meteohub,2013-02-22 20:42:00,
2013-02-22 15:47:00,31.8,30.7,30.04,SSW,192,5.0,11.0,96,0.00,,,0.00,meteohub,2013-02-22 20:47:00,
2013-02-22 15:52:00,31.8,30.7,30.04,SW,220,3.0,10.0,96,0.00,,,0.00,meteohub,2013-02-22 20:52:00,
2013-02-22 15:57:00,31.8,30.7,30.04,SW,233,4.0,11.0,96,0.00,,,0.00,meteohub,2013-02-22 20:57:00,
2013-02-22 16:02:00,31.8,30.7,30.04,South,176,3.0,11.0,96,0.00,,,0.00,meteohub,2013-02-22 21:02:00,
2013-02-22 16:07:00,31.8,30.7,30.04,SSW,210,5.0,11.0,96,0.00,,,0.00,meteohub,2013-02-22 21:07:00,
2013-02-22 16:12:00,32.0,30.9,30.04,SSW,212,7.0,10.0,96,0.00,,,0.00,meteohub,2013-02-22 21:12:00,
2013-02-22 16:17:00,31.8,30.7,30.04,SW,223,4.0,11.0,96,0.00,,,0.00,meteohub,2013-02-22 21:17:00,
2013-02-22 16:22:00,32.0,30.9,30.04,SW,227,6.0,11.0,96,0.00,,,0.00,meteohub,2013-02-22 21:22:00,
2013-02-22 16:27:00,32.0,30.9,30.04,SSW,194,3.0,10.0,96,0.00,,,0.00,meteohub,2013-02-22 21:27:00,
2013-02-22 16:32:00,32.2,31.1,30.04,WSW,242,6.0,10.0,96,0.00,,,0.00,meteohub,2013-02-22 21:32:00,
2013-02-22 16:37:00,32.2,31.1,30.04,SSW,213,6.0,12.0,96,0.00,,,0.00,meteohub,2013-02-22 21:37:00,
2013-02-22 16:42:00,32.2,31.1,30.04,SSW,196,4.0,12.0,96,0.00,,,0.00,meteohub,2013-02-22 21:42:00,
2013-02-22 16:47:00,32.2,31.1,30.04,SSW,207,1.0,12.0,96,0.01,,,0.01,meteohub,2013-02-22 21:47:00,
2013-02-22 16:52:00,32.2,31.1,30.04,SSW,195,6.0,9.0,96,0.01,,,0.01,meteohub,2013-02-22 21:52:00,
2013-02-22 16:57:00,32.4,31.3,30.04,SW,227,3.0,8.0,96,0.01,,,0.01,meteohub,2013-02-22 21:57:00,
2013-02-22 17:02:00,32.4,31.3,30.04,SSW,198,4.0,8.0,96,0.01,,,0.01,meteohub,2013-02-22 22:02:00,
2013-02-22 17:07:00,32.4,31.3,30.05,SW,226,1.0,8.0,96,0.02,,,0.02,meteohub,2013-02-22 22:07:00,
2013-02-22 17:12:00,32.4,31.3,30.04,SSW,209,4.0,8.0,96,0.02,,,0.02,meteohub,2013-02-22 22:12:00,
2013-02-22 17:17:00,32.5,31.5,30.05,SSW,212,3.0,7.0,96,0.02,,,0.02,meteohub,2013-02-22 22:17:00,
2013-02-22 17:22:00,32.5,31.5,30.05,SSW,210,3.0,7.0,96,0.02,,,0.02,meteohub,2013-02-22 22:22:00,
2013-02-22 17:27:00,32.5,31.5,30.05,SSW,209,4.0,7.0,96,0.02,,,0.02,meteohub,2013-02-22 22:27:00,
2013-02-22 17:32:00,32.5,31.5,30.05,SSW,207,3.0,7.0,96,0.02,,,0.02,meteohub,2013-02-22 22:32:00,
2013-02-22 17:37:00,32.5,31.5,30.05,SSW,205,3.0,6.0,96,0.02,,,0.02,meteohub,2013-02-22 22:37:00,
2013-02-22 17:42:00,32.5,31.5,30.05,NNW,333,5.0,6.0,96,0.02,,,0.02,meteohub,2013-02-22 22:42:00,
2013-02-22 17:47:00,32.5,31.5,30.05,SSW,213,2.0,6.0,96,0.01,,,0.02,meteohub,2013-02-22 22:47:00,
2013-02-22 17:52:00,32.7,31.6,30.06,SW,221,2.0,5.0,96,0.01,,,0.02,meteohub,2013-02-22 22:52:00,
2013-02-22 17:57:00,32.7,31.6,30.05,SW,221,3.0,7.0,96,0.01,,,0.02,meteohub,2013-02-22 22:57:00,
2013-02-22 18:02:00,32.7,31.6,30.05,SW,217,1.0,7.0,96,0.00,,,0.02,meteohub,2013-02-22 23:02:00,
2013-02-22 18:07:00,32.7,31.6,30.05,SW,224,2.0,7.0,96,0.00,,,0.02,meteohub,2013-02-22 23:07:00,
2013-02-22 18:12:00,32.9,31.8,30.06,SW,214,1.0,5.0,96,0.00,,,0.02,meteohub,2013-02-22 23:12:00,
2013-02-22 18:17:00,32.7,31.6,30.05,SW,230,2.0,5.0,96,0.00,,,0.02,meteohub,2013-02-22 23:17:00,
2013-02-22 18:22:00,32.9,31.8,30.06,SW,233,1.0,5.0,96,0.00,,,0.02,meteohub,2013-02-22 23:22:00,
2013-02-22 18:27:00,32.9,31.8,30.05,SW,217,3.0,5.0,96,0.00,,,0.02,meteohub,2013-02-22 23:27:00,
2013-02-22 18:32:00,32.9,31.8,30.06,WSW,242,0.0,5.0,96,0.00,,,0.02,meteohub,2013-02-22 23:32:00,
2013-02-22 18:37:00,33.1,32.0,30.05,SW,235,2.0,4.0,96,0.00,,,0.02,meteohub,2013-02-22 23:37:00,
2013-02-22 18:42:00,33.1,32.0,30.05,SSW,209,3.0,5.0,96,0.00,,,0.02,meteohub,2013-02-22 23:42:00,
2013-02-22 18:47:00,33.3,32.2,30.05,SW,222,1.0,7.0,96,0.00,,,0.02,meteohub,2013-02-22 23:47:00,
2013-02-22 18:52:00,33.3,32.2,30.05,SW,220,1.0,7.0,96,0.00,,,0.02,meteohub,2013-02-22 23:52:00,
2013-02-22 18:57:00,33.4,32.4,30.06,WSW,240,1.0,7.0,96,0.00,,,0.02,meteohub,2013-02-22 23:57:00,
2013-02-22 19:02:00,33.4,32.4,30.06,SW,216,2.0,5.0,96,0.00,,,0.02,meteohub,2013-02-23 00:02:00,
2013-02-22 19:07:00,33.6,32.9,30.05,SW,217,4.0,5.0,97,0.00,,,0.02,meteohub,2013-02-23 00:07:00,
2013-02-22 19:12:00,33.6,32.9,30.06,SW,222,3.0,5.0,97,0.00,,,0.02,meteohub,2013-02-23 00:12:00,
2013-02-22 19:17:00,33.6,32.9,30.06,SW,227,2.0,5.0,97,0.00,,,0.02,meteohub,2013-02-23 00:17:00,
2013-02-22 19:22:00,33.8,32.7,30.06,South,188,1.0,4.0,96,0.00,,,0.02,meteohub,2013-02-23 00:22:00,
2013-02-22 19:27:00,33.6,32.5,30.06,WSW,256,1.0,4.0,96,0.00,,,0.02,meteohub,2013-02-23 00:27:00,
2013-02-22 19:32:00,33.6,32.5,30.06,SW,235,2.0,4.0,96,0.00,,,0.02,meteohub,2013-02-23 00:32:00,
2013-02-22 19:37:00,33.6,32.5,30.06,SW,234,0.0,3.0,96,0.00,,,0.02,meteohub,2013-02-23 00:37:00,
2013-02-22 19:42:00,33.6,32.5,30.05,SW,234,0.0,3.0,96,0.00,,,0.02,meteohub,2013-02-23 00:42:00,
2013-02-22 19:47:00,33.4,32.4,30.06,SW,234,3.0,3.0,96,0.01,,,0.03,meteohub,2013-02-23 00:47:00,
2013-02-22 19:52:00,33.4,32.4,30.06,SW,232,1.0,3.0,96,0.01,,,0.03,meteohub,2013-02-23 00:52:00,
2013-02-22 19:57:00,33.4,32.4,30.05,SW,232,0.0,3.0,96,0.01,,,0.03,meteohub,2013-02-23 00:57:00,
2013-02-22 20:02:00,33.3,32.2,30.06,SW,232,1.0,3.0,96,0.01,,,0.03,meteohub,2013-02-23 01:02:00,
2013-02-22 20:07:00,33.3,32.2,30.06,SW,232,0.0,3.0,96,0.01,,,0.03,meteohub,2013-02-23 01:07:00,
2013-02-22 20:12:00,33.1,32.0,30.06,SW,232,2.0,3.0,96,0.01,,,0.03,meteohub,2013-02-23 01:12:00,
2013-02-22 20:17:00,33.1,32.0,30.06,WSW,254,1.0,2.0,96,0.01,,,0.03,meteohub,2013-02-23 01:17:00,
2013-02-22 20:22:00,33.1,32.0,30.06,West,273,4.0,4.0,96,0.01,,,0.03,meteohub,2013-02-23 01:22:00,
2013-02-22 20:27:00,33.3,32.2,30.06,SW,232,2.0,4.0,96,0.01,,,0.03,meteohub,2013-02-23 01:27:00,
2013-02-22 20:32:00,33.3,32.2,30.06,WSW,246,1.0,4.0,96,0.01,,,0.03,meteohub,2013-02-23 01:32:00,
2013-02-22 20:37:00,33.3,32.2,30.05,South,184,2.0,4.0,96,0.01,,,0.03,meteohub,2013-02-23 01:37:00,
2013-02-22 20:42:00,33.4,32.4,30.05,WSW,246,0.0,4.0,96,0.01,,,0.03,meteohub,2013-02-23 01:42:00,
2013-02-22 20:47:00,33.4,32.4,30.06,WSW,252,2.0,4.0,96,0.00,,,0.03,meteohub,2013-02-23 01:47:00,
2013-02-22 20:52:00,33.4,32.4,30.05,WSW,252,0.0,4.0,96,0.00,,,0.03,meteohub,2013-02-23 01:52:00,
2013-02-22 20:57:00,33.3,32.2,30.05,WSW,252,0.0,4.0,96,0.00,,,0.03,meteohub,2013-02-23 01:57:00,
2013-02-22 21:02:00,33.3,32.2,30.05,WSW,252,1.0,3.0,96,0.00,,,0.03,meteohub,2013-02-23 02:02:00,
2013-02-22 21:07:00,33.3,32.2,30.05,WSW,252,0.0,2.0,96,0.00,,,0.03,meteohub,2013-02-23 02:07:00,
2013-02-22 21:12:00,33.3,32.2,30.06,WSW,252,0.0,2.0,96,0.00,,,0.03,meteohub,2013-02-23 02:12:00,
2013-02-22 21:17:00,33.3,32.2,30.06,WSW,252,1.0,2.0,96,0.00,,,0.03,meteohub,2013-02-23 02:17:00,
2013-02-22 21:22:00,33.3,32.2,30.06,WSW,251,1.0,3.0,96,0.00,,,0.03,meteohub,2013-02-23 02:22:00,
2013-02-22 21:27:00,33.3,32.2,30.06,WSW,251,1.0,3.0,96,0.00,,,0.03,meteohub,2013-02-23 02:27:00,
2013-02-22 21:32:00,33.3,32.2,30.06,WSW,251,2.0,3.0,96,0.00,,,0.03,meteohub,2013-02-23 02:32:00,
2013-02-22 21:37:00,33.3,32.2,30.06,WSW,251,0.0,3.0,96,0.00,,,0.03,meteohub,2013-02-23 02:37:00,
2013-02-22 21:42:00,33.3,32.2,30.05,WSW,251,0.0,3.0,96,0.00,,,0.03,meteohub,2013-02-23 02:42:00,
2013-02-22 21:47:00,33.3,32.2,30.05,WSW,251,1.0,2.0,96,0.00,,,0.03,meteohub,2013-02-23 02:47:00,
2013-02-22 21:52:00,33.3,32.2,30.05,WSW,251,0.0,3.0,96,0.00,,,0.03,meteohub,2013-02-23 02:52:00,
2013-02-22 21:57:00,33.3,32.2,30.06,WSW,251,1.0,3.0,96,0.00,,,0.03,meteohub,2013-02-23 02:57:00,
2013-02-22 22:02:00,33.3,32.2,30.05,WSW,251,1.0,3.0,96,0.00,,,0.03,meteohub,2013-02-23 03:02:00,
2013-02-22 22:07:00,33.3,32.2,30.05,WSW,251,0.0,2.0,96,0.00,,,0.03,meteohub,2013-02-23 03:07:00,
2013-02-22 22:12:00,33.3,32.2,30.05,WSW,251,1.0,2.0,96,0.00,,,0.03,meteohub,2013-02-23 03:12:00,
2013-02-22 22:17:00,33.3,32.5,30.05,WSW,251,1.0,3.0,97,0.00,,,0.03,meteohub,2013-02-23 03:17:00,
2013-02-22 22:22:00,33.3,32.5,30.06,WSW,251,2.0,3.0,97,0.00,,,0.03,meteohub,2013-02-23 03:22:00,
2013-02-22 22:27:00,33.3,32.5,30.05,WSW,251,1.0,3.0,97,0.00,,,0.03,meteohub,2013-02-23 03:27:00,
2013-02-22 22:32:00,33.3,32.5,30.05,SW,234,2.0,3.0,97,0.00,,,0.03,meteohub,2013-02-23 03:32:00,
2013-02-22 22:37:00,33.3,32.5,30.05,SW,234,0.0,4.0,97,0.00,,,0.03,meteohub,2013-02-23 03:37:00,
2013-02-22 22:42:00,33.4,32.7,30.05,WSW,238,2.0,4.0,97,0.00,,,0.03,meteohub,2013-02-23 03:42:00,
2013-02-22 22:47:00,33.4,32.7,30.05,West,262,0.0,4.0,97,0.00,,,0.03,meteohub,2013-02-23 03:47:00,
2013-02-22 22:52:00,33.4,32.7,30.05,West,262,0.0,4.0,97,0.00,,,0.03,meteohub,2013-02-23 03:52:00,
2013-02-22 22:57:00,33.4,32.7,30.05,WSW,250,1.0,4.0,97,0.00,,,0.03,meteohub,2013-02-23 03:57:00,
2013-02-22 23:02:00,33.4,32.7,30.05,WSW,252,1.0,3.0,97,0.00,,,0.03,meteohub,2013-02-23 04:02:00,
2013-02-22 23:07:00,33.4,32.7,30.05,WSW,242,2.0,4.0,97,0.00,,,0.03,meteohub,2013-02-23 04:07:00,
2013-02-22 23:12:00,33.4,32.7,30.05,WSW,246,1.0,4.0,97,0.00,,,0.03,meteohub,2013-02-23 04:12:00,
2013-02-22 23:17:00,33.6,32.9,30.05,West,261,2.0,4.0,97,0.00,,,0.03,meteohub,2013-02-23 04:17:00,
2013-02-22 23:22:00,33.6,32.9,30.05,SW,233,2.0,4.0,97,0.00,,,0.03,meteohub,2013-02-23 04:22:00,
2013-02-22 23:27:00,33.6,32.9,30.05,WSW,256,2.0,4.0,97,0.00,,,0.03,meteohub,2013-02-23 04:27:00,
2013-02-22 23:32:00,33.4,32.7,30.04,SW,224,1.0,4.0,97,0.00,,,0.03,meteohub,2013-02-23 04:32:00,
2013-02-22 23:37:00,33.4,32.4,30.04,SW,216,2.0,5.0,96,0.00,,,0.03,meteohub,2013-02-23 04:37:00,
2013-02-22 23:42:00,33.4,32.4,30.04,SW,234,1.0,5.0,96,0.00,,,0.03,meteohub,2013-02-23 04:42:00,
2013-02-22 23:47:00,33.4,32.4,30.05,West,274,1.0,5.0,96,0.00,,,0.03,meteohub,2013-02-23 04:47:00,
2013-02-22 23:53:00,33.4,32.4,30.05,SW,219,1.0,6.0,96,0.00,,,0.03,meteohub,2013-02-23 04:53:00,
2013-02-22 23:58:00,33.4,32.4,30.05,SW,229,3.0,6.0,96,0.00,,,0.03,meteohub,2013-02-23 04:58:00,